map of ANU home
Great Circle Mapper logo
ANU - Airport
Location
City:  Antigua, Antigua Island, Antigua and Barbuda
Near (Alt.):Saint John's
Name:V.C. Bird International Airport
Old (Alt.):Coolidge International, Coolidge AFB
ICAO / IATA:TAPA / ANU

Details
Type:Airport (Aerodrome, Airfield)
Use:Military, International (customs port of entry)
Latitude:1708'12"N (17.136667)
Longitude:6147'34"W (-61.792777)
Elevation:62 ft (19 m)
Runways:1
Longest:8980 × 148 ft (2737 × 45 m)

Time
Time Zone:UTC-4
Local Time:

Weather
METAR:TAPA 310900Z 18006KT 9999 FEW018 25/23 Q1010 NOSIG

Related Locations
Nearby:
Farthest:PRD: 12208 mi / 19647 km
Pardoo, WA, AU

Find:

   beyond  
but within

Other Information
Maps:
NOTAMs:
Links:
Sources:

  
flag of Antigua and Barbuda   

Sectional Chart

Flight Planning
at skyvector.com

Satellite Image

Google Maps Satellite View

 

Copyright © 2004-2014 Karl L. Swartz. All rights reserved.
The Great Circle Mapper name and logo are trademarks of the Great Circle Mapper.
All other trademarks mentioned herein belong to their respective owners.
Please see credits for attibutions and further copyright information.

  Follow gcmap on Facebook Follow gcmap on Twitter

hCard Microformat

Geo Microformat